Wetterdaten: Dienstag, 16.06.2015
Datum Zeit Temp. A. Feuchte A. Luftdruck Regen Wind Richtung Richtung Sonnenschein ET UV Solar Taupunkt Windchill Windben Empfang
16.06.2015 00:00 15,1 C 88 % 1016,7 hPa 0,0 l/m 1,4 km/h (1 Bft) O-NO 62 0 min 0,000 mm 0,0 UV-I 0 W/m 13,1 C 15,1 C 4,0 km/h (1 Bft) 0,00 %
16.06.2015 00:05 15,0 C 89 % 1016,6 hPa 0,0 l/m 2,9 km/h (1 Bft) O-NO 62 0 min 0,000 mm 0,0 UV-I 0 W/m 13,2 C 15,0 C 4,0 km/h (1 Bft) 0,00 %
16.06.2015 00:10 15,0 C 91 % 1016,6 hPa 0,0 l/m 0,0 km/h (0 Bft) SO 131 0 min 0,000 mm 0,0 UV-I 0 W/m 13,5 C 15,0 C 0,0 km/h (0 Bft) 0,00 %
16.06.2015 00:15 14,9 C 91 % 1016,6 hPa 0,0 l/m 0,0 km/h (0 Bft) O-SO 108 0 min 0,000 mm 0,0 UV-I 0 W/m 13,4 C 14,9 C 0,0 km/h (0 Bft) 0,00 %
16.06.2015 00:20 14,9 C 91 % 1016,5 hPa 0,0 l/m 0,0 km/h (0 Bft) O-SO 114 0 min 0,000 mm 0,0 UV-I 0 W/m 13,4 C 14,9 C 0,0 km/h (0 Bft) 0,00 %
16.06.2015 00:25 14,8 C 91 % 1016,6 hPa 0,0 l/m 0,0 km/h (0 Bft) SO 136 0 min 0,000 mm 0,0 UV-I 0 W/m 13,3 C 14,8 C 0,0 km/h (0 Bft) 0,00 %
16.06.2015 00:30 14,8 C 91 % 1016,6 hPa 0,0 l/m 0,0 km/h (0 Bft) O 97 0 min 0,000 mm 0,0 UV-I 0 W/m 13,3 C 14,8 C 0,0 km/h (0 Bft) 0,00 %
16.06.2015 00:35 14,8 C 91 % 1016,6 hPa 0,0 l/m 0,0 km/h (0 Bft) O-SO 112 0 min 0,000 mm 0,0 UV-I 0 W/m 13,3 C 14,8 C 0,0 km/h (0 Bft) 0,00 %
16.06.2015 00:40 14,8 C 91 % 1016,6 hPa 0,0 l/m 0,4 km/h (0 Bft) O 101 0 min 0,000 mm 0,0 UV-I 0 W/m 13,3 C 14,8 C 4,0 km/h (1 Bft) 0,00 %
16.06.2015 00:45 14,8 C 92 % 1016,8 hPa 0,0 l/m 0,0 km/h (0 Bft) SO 131 0 min 0,000 mm 0,0 UV-I 0 W/m 13,5 C 14,8 C 0,0 km/h (0 Bft) 0,00 %
16.06.2015 00:50 14,8 C 92 % 1016,7 hPa 0,3 l/m 0,0 km/h (0 Bft) SO 125 0 min 0,000 mm 0,0 UV-I 0 W/m 13,5 C 14,8 C 0,0 km/h (0 Bft) 0,00 %
16.06.2015 00:55 14,8 C 92 % 1016,7 hPa 0,0 l/m 0,0 km/h (0 Bft) O-SO 118 0 min 0,000 mm 0,0 UV-I 0 W/m 13,5 C 14,8 C 0,0 km/h (0 Bft) 0,00 %
16.06.2015 01:00 14,8 C 92 % 1016,8 hPa 0,0 l/m 0,0 km/h (0 Bft) O-SO 118 0 min 0,000 mm 0,0 UV-I 0 W/m 13,5 C 14,8 C 0,0 km/h (0 Bft) 0,00 %
16.06.2015 01:05 14,8 C 93 % 1016,6 hPa 0,0 l/m 0,0 km/h (0 Bft) SW 235 0 min 0,000 mm 0,0 UV-I 0 W/m 13,7 C 14,8 C 0,0 km/h (0 Bft) 0,00 %
16.06.2015 01:10 14,8 C 93 % 1016,6 hPa 0,0 l/m 0,0 km/h (0 Bft) S 175 0 min 0,000 mm 0,0 UV-I 0 W/m 13,7 C 14,8 C 0,0 km/h (0 Bft) 0,00 %
16.06.2015 01:15 14,7 C 94 % 1016,9 hPa 0,0 l/m 0,0 km/h (0 Bft) S 178 0 min 0,000 mm 0,0 UV-I 0 W/m 13,7 C 14,7 C 0,0 km/h (0 Bft) 0,00 %
16.06.2015 01:20 14,7 C 94 % 1016,8 hPa 0,0 l/m 0,0 km/h (0 Bft) S 178 0 min 0,000 mm 0,0 UV-I 0 W/m 13,7 C 14,7 C 0,0 km/h (0 Bft) 0,00 %
16.06.2015 01:25 14,7 C 94 % 1016,9 hPa 0,0 l/m 0,0 km/h (0 Bft) S 178 0 min 0,000 mm 0,0 UV-I 0 W/m 13,7 C 14,7 C 0,0 km/h (0 Bft) 0,00 %
16.06.2015 01:30 14,7 C 94 % 1016,6 hPa 0,0 l/m 0,0 km/h (0 Bft) S 178 0 min 0,000 mm 0,0 UV-I 0 W/m 13,7 C 14,7 C 0,0 km/h (0 Bft) 0,00 %
16.06.2015 01:35 14,7 C 94 % 1016,8 hPa 0,0 l/m 0,0 km/h (0 Bft) S 178 0 min 0,000 mm 0,0 UV-I 0 W/m 13,7 C 14,7 C 0,0 km/h (0 Bft) 0,00 %
16.06.2015 01:40 14,7 C 95 % 1016,9 hPa 0,0 l/m 0,0 km/h (0 Bft) SO 146 0 min 0,000 mm 0,0 UV-I 0 W/m 13,9 C 14,7 C 0,0 km/h (0 Bft) 0,00 %
16.06.2015 01:45 14,8 C 95 % 1016,9 hPa 0,0 l/m 0,0 km/h (0 Bft) SO 142 0 min 0,000 mm 0,0 UV-I 0 W/m 14,0 C 14,8 C 0,0 km/h (0 Bft) 0,00 %
16.06.2015 01:50 14,8 C 95 % 1016,8 hPa 0,0 l/m 0,0 km/h (0 Bft) SO 141 0 min 0,000 mm 0,0 UV-I 0 W/m 14,0 C 14,8 C 0,0 km/h (0 Bft) 0,00 %
16.06.2015 01:55 14,9 C 94 % 1016,8 hPa 0,0 l/m 0,0 km/h (0 Bft) S 179 0 min 0,000 mm 0,0 UV-I 0 W/m 13,9 C 14,9 C 0,0 km/h (0 Bft) 0,00 %
16.06.2015 02:00 14,9 C 94 % 1016,8 hPa 0,0 l/m 0,0 km/h (0 Bft) W-NW 299 0 min 0,000 mm 0,0 UV-I 0 W/m 13,9 C 14,9 C 0,0 km/h (0 Bft) 0,00 %
16.06.2015 02:05 14,8 C 95 % 1016,8 hPa 0,0 l/m 0,0 km/h (0 Bft) SO 129 0 min 0,000 mm 0,0 UV-I 0 W/m 14,0 C 14,8 C 0,0 km/h (0 Bft) 0,00 %
16.06.2015 02:10 14,6 C 94 % 1017,1 hPa 0,0 l/m 2,2 km/h (1 Bft) NO 37 0 min 0,000 mm 0,0 UV-I 0 W/m 13,6 C 14,6 C 4,0 km/h (1 Bft) 0,00 %
16.06.2015 02:15 14,4 C 93 % 1016,9 hPa 0,3 l/m 0,0 km/h (0 Bft) SO 141 0 min 0,000 mm 0,0 UV-I 0 W/m 13,3 C 14,4 C 0,0 km/h (0 Bft) 0,00 %
16.06.2015 02:20 14,4 C 93 % 1016,9 hPa 0,0 l/m 0,0 km/h (0 Bft) SO 133 0 min 0,000 mm 0,0 UV-I 0 W/m 13,3 C 14,4 C 0,0 km/h (0 Bft) 0,00 %
16.06.2015 02:25 14,4 C 92 % 1017,1 hPa 0,0 l/m 0,0 km/h (0 Bft) O-SO 118 0 min 0,000 mm 0,0 UV-I 0 W/m 13,1 C 14,4 C 0,0 km/h (0 Bft) 0,00 %
16.06.2015 02:30 14,4 C 92 % 1017,1 hPa 0,0 l/m 0,0 km/h (0 Bft) SO 139 0 min 0,000 mm 0,0 UV-I 0 W/m 13,1 C 14,4 C 0,0 km/h (0 Bft) 0,00 %
16.06.2015 02:35 14,4 C 92 % 1017,1 hPa 0,0 l/m 0,0 km/h (0 Bft) SO 141 0 min 0,000 mm 0,0 UV-I 0 W/m 13,1 C 14,4 C 0,0 km/h (0 Bft) 0,00 %
16.06.2015 02:40 14,4 C 93 % 1017,0 hPa 0,0 l/m 0,0 km/h (0 Bft) S-SO 148 0 min 0,000 mm 0,0 UV-I 0 W/m 13,3 C 14,4 C 0,0 km/h (0 Bft) 0,00 %
16.06.2015 02:45 14,5 C 93 % 1017,1 hPa 0,0 l/m 0,0 km/h (0 Bft) S-SO 154 0 min 0,000 mm 0,0 UV-I 0 W/m 13,4 C 14,5 C 0,0 km/h (0 Bft) 0,00 %
16.06.2015 02:50 14,5 C 93 % 1017,0 hPa 0,0 l/m 0,0 km/h (0 Bft) SO 129 0 min 0,000 mm 0,0 UV-I 0 W/m 13,4 C 14,5 C 0,0 km/h (0 Bft) 0,00 %
16.06.2015 02:55 14,5 C 94 % 1017,1 hPa 0,0 l/m 0,0 km/h (0 Bft) SO 129 0 min 0,000 mm 0,0 UV-I 0 W/m 13,5 C 14,5 C 0,0 km/h (0 Bft) 0,00 %
16.06.2015 03:00 14,5 C 94 % 1017,0 hPa 0,0 l/m 0,0 km/h (0 Bft) SO 125 0 min 0,000 mm 0,0 UV-I 0 W/m 13,5 C 14,5 C 0,0 km/h (0 Bft) 0,00 %
16.06.2015 03:05 14,5 C 94 % 1017,1 hPa 0,0 l/m 0,0 km/h (0 Bft) S 172 0 min 0,000 mm 0,0 UV-I 0 W/m 13,5 C 14,5 C 0,0 km/h (0 Bft) 0,00 %
16.06.2015 03:10 14,5 C 94 % 1017,0 hPa 0,0 l/m 0,0 km/h (0 Bft) S-SO 158 0 min 0,000 mm 0,0 UV-I 0 W/m 13,5 C 14,5 C 0,0 km/h (0 Bft) 0,00 %
16.06.2015 03:15 14,4 C 94 % 1016,9 hPa 0,0 l/m 0,0 km/h (0 Bft) S-SO 165 0 min 0,000 mm 0,0 UV-I 0 W/m 13,4 C 14,4 C 0,0 km/h (0 Bft) 0,00 %
16.06.2015 03:20 14,4 C 94 % 1017,1 hPa 0,0 l/m 0,0 km/h (0 Bft) S-SO 148 0 min 0,000 mm 0,0 UV-I 0 W/m 13,4 C 14,4 C 0,0 km/h (0 Bft) 0,00 %
16.06.2015 03:25 14,4 C 94 % 1016,9 hPa 0,0 l/m 0,0 km/h (0 Bft) S 172 0 min 0,000 mm 0,0 UV-I 0 W/m 13,4 C 14,4 C 0,0 km/h (0 Bft) 0,00 %
16.06.2015 03:30 14,4 C 94 % 1017,1 hPa 0,0 l/m 0,0 km/h (0 Bft) S-SO 165 0 min 0,000 mm 0,0 UV-I 0 W/m 13,4 C 14,4 C 0,0 km/h (0 Bft) 0,00 %
16.06.2015 03:35 14,3 C 94 % 1017,1 hPa 0,0 l/m 0,0 km/h (0 Bft) SO 144 0 min 0,000 mm 0,0 UV-I 0 W/m 13,3 C 14,3 C 0,0 km/h (0 Bft) 0,00 %
16.06.2015 03:40 14,3 C 94 % 1017,0 hPa 0,0 l/m 0,0 km/h (0 Bft) S 178 0 min 0,000 mm 0,0 UV-I 0 W/m 13,3 C 14,3 C 0,0 km/h (0 Bft) 0,00 %
16.06.2015 03:45 14,3 C 94 % 1017,1 hPa 0,0 l/m 0,0 km/h (0 Bft) S 177 0 min 0,000 mm 0,0 UV-I 0 W/m 13,3 C 14,3 C 0,0 km/h (0 Bft) 0,00 %
16.06.2015 03:50 14,3 C 94 % 1016,9 hPa 0,0 l/m 0,0 km/h (0 Bft) S 177 0 min 0,000 mm 0,0 UV-I 0 W/m 13,3 C 14,3 C 0,0 km/h (0 Bft) 0,00 %
16.06.2015 03:55 14,2 C 94 % 1017,1 hPa 0,0 l/m 0,0 km/h (0 Bft) S 176 0 min 0,000 mm 0,0 UV-I 0 W/m 13,2 C 14,2 C 0,0 km/h (0 Bft) 0,00 %
16.06.2015 04:00 14,2 C 95 % 1017,2 hPa 0,0 l/m 0,0 km/h (0 Bft) S 176 0 min 0,000 mm 0,0 UV-I 0 W/m 13,4 C 14,2 C 0,0 km/h (0 Bft) 0,00 %
16.06.2015 04:05 14,2 C 95 % 1017,2 hPa 0,0 l/m 0,0 km/h (0 Bft) S 176 0 min 0,000 mm 0,0 UV-I 0 W/m 13,4 C 14,2 C 0,0 km/h (0 Bft) 0,00 %
16.06.2015 04:10 14,2 C 95 % 1017,0 hPa 0,0 l/m 0,0 km/h (0 Bft) S 176 0 min 0,000 mm 0,0 UV-I 0 W/m 13,4 C 14,2 C 0,0 km/h (0 Bft) 0,00 %
16.06.2015 04:15 14,2 C 95 % 1017,2 hPa 0,0 l/m 0,0 km/h (0 Bft) S 186 0 min 0,000 mm 0,0 UV-I 0 W/m 13,4 C 14,2 C 0,0 km/h (0 Bft) 0,00 %
16.06.2015 04:20 14,2 C 95 % 1017,1 hPa 0,0 l/m 0,0 km/h (0 Bft) S 187 0 min 0,000 mm 0,0 UV-I 0 W/m 13,4 C 14,2 C 0,0 km/h (0 Bft) 0,00 %
16.06.2015 04:25 14,2 C 95 % 1017,2 hPa 0,0 l/m 0,0 km/h (0 Bft) S 184 0 min 0,000 mm 0,0 UV-I 0 W/m 13,4 C 14,2 C 0,0 km/h (0 Bft) 0,00 %
16.06.2015 04:30 14,2 C 95 % 1017,2 hPa 0,0 l/m 0,0 km/h (0 Bft) S 184 0 min 0,000 mm 0,0 UV-I 0 W/m 13,4 C 14,2 C 0,0 km/h (0 Bft) 0,00 %
16.06.2015 04:35 14,2 C 95 % 1017,5 hPa 0,0 l/m 0,0 km/h (0 Bft) S 184 0 min 0,000 mm 0,0 UV-I 0 W/m 13,4 C 14,2 C 0,0 km/h (0 Bft) 0,00 %
16.06.2015 04:40 14,3 C 95 % 1017,2 hPa 0,0 l/m 0,0 km/h (0 Bft) S 184 0 min 0,000 mm 0,0 UV-I 0 W/m 13,5 C 14,3 C 0,0 km/h (0 Bft) 0,00 %
16.06.2015 04:45 14,3 C 95 % 1017,3 hPa 0,0 l/m 0,0 km/h (0 Bft) S 184 0 min 0,000 mm 0,0 UV-I 0 W/m 13,5 C 14,3 C 0,0 km/h (0 Bft) 0,00 %
16.06.2015 04:50 14,3 C 95 % 1017,5 hPa 0,0 l/m 0,0 km/h (0 Bft) S 184 0 min 0,000 mm 0,0 UV-I 0 W/m 13,5 C 14,3 C 0,0 km/h (0 Bft) 0,00 %
16.06.2015 04:55 14,3 C 95 % 1017,4 hPa 0,0 l/m 0,0 km/h (0 Bft) S 182 0 min 0,000 mm 0,0 UV-I 0 W/m 13,5 C 14,3 C 0,0 km/h (0 Bft) 0,00 %
16.06.2015 05:00 14,2 C 95 % 1017,6 hPa 0,0 l/m 0,0 km/h (0 Bft) S 182 0 min 0,000 mm 0,0 UV-I 0 W/m 13,4 C 14,2 C 0,0 km/h (0 Bft) 0,00 %
16.06.2015 05:05 14,2 C 95 % 1017,2 hPa 0,0 l/m 0,0 km/h (0 Bft) S 182 0 min 0,000 mm 0,0 UV-I 0 W/m 13,4 C 14,2 C 0,0 km/h (0 Bft) 0,00 %
16.06.2015 05:10 14,1 C 95 % 1017,5 hPa 0,0 l/m 0,0 km/h (0 Bft) S 182 0 min 0,000 mm 0,0 UV-I 0 W/m 13,3 C 14,1 C 0,0 km/h (0 Bft) 0,00 %
16.06.2015 05:15 14,0 C 94 % 1017,5 hPa 0,0 l/m 0,0 km/h (0 Bft) S 182 0 min 0,000 mm 0,0 UV-I 0 W/m 13,0 C 14,0 C 0,0 km/h (0 Bft) 0,00 %
16.06.2015 05:20 14,0 C 94 % 1017,6 hPa 0,0 l/m 0,0 km/h (0 Bft) S 182 0 min 0,000 mm 0,0 UV-I 0 W/m 13,0 C 14,0 C 0,0 km/h (0 Bft) 0,00 %
16.06.2015 05:25 13,9 C 94 % 1017,5 hPa 0,0 l/m 0,0 km/h (0 Bft) SO 139 0 min 0,000 mm 0,0 UV-I 0 W/m 12,9 C 13,9 C 0,0 km/h (0 Bft) 0,00 %
16.06.2015 05:30 13,9 C 93 % 1017,5 hPa 0,0 l/m 0,0 km/h (0 Bft) S-SW 203 0 min 0,000 mm 0,0 UV-I 2 W/m 12,8 C 13,9 C 0,0 km/h (0 Bft) 0,00 %
16.06.2015 05:35 14,0 C 93 % 1017,7 hPa 0,0 l/m 0,0 km/h (0 Bft) S 188 0 min 0,000 mm 0,0 UV-I 0 W/m 12,9 C 14,0 C 0,0 km/h (0 Bft) 0,00 %
16.06.2015 05:40 14,0 C 93 % 1017,6 hPa 0,0 l/m 0,0 km/h (0 Bft) S 188 0 min 0,000 mm 0,0 UV-I 0 W/m 12,9 C 14,0 C 0,0 km/h (0 Bft) 0,00 %
16.06.2015 05:45 14,1 C 92 % 1017,5 hPa 0,0 l/m 0,0 km/h (0 Bft) S 188 0 min 0,000 mm 0,0 UV-I 1 W/m 12,8 C 14,1 C 0,0 km/h (0 Bft) 0,00 %
16.06.2015 05:50 14,1 C 91 % 1017,7 hPa 0,0 l/m 0,0 km/h (0 Bft) S 188 0 min 0,000 mm 0,0 UV-I 1 W/m 12,7 C 14,1 C 0,0 km/h (0 Bft) 0,00 %
16.06.2015 05:55 14,1 C 91 % 1017,8 hPa 0,0 l/m 0,0 km/h (0 Bft) S 188 0 min 0,000 mm 0,0 UV-I 2 W/m 12,7 C 14,1 C 0,0 km/h (0 Bft) 0,00 %
16.06.2015 06:00 14,2 C 91 % 1017,8 hPa 0,0 l/m 0,0 km/h (0 Bft) S 188 0 min 0,000 mm 0,0 UV-I 4 W/m 12,8 C 14,2 C 0,0 km/h (0 Bft) 0,00 %
16.06.2015 06:05 14,3 C 91 % 1017,5 hPa 0,0 l/m 0,0 km/h (0 Bft) S 188 0 min 0,000 mm 0,0 UV-I 5 W/m 12,8 C 14,3 C 0,0 km/h (0 Bft) 0,00 %
16.06.2015 06:10 14,3 C 91 % 1017,9 hPa 0,0 l/m 0,0 km/h (0 Bft) S 188 0 min 0,000 mm 0,0 UV-I 9 W/m 12,8 C 14,3 C 0,0 km/h (0 Bft) 0,00 %
16.06.2015 06:15 14,4 C 90 % 1017,9 hPa 0,0 l/m 0,0 km/h (0 Bft) S 188 0 min 0,000 mm 0,0 UV-I 25 W/m 12,8 C 14,4 C 0,0 km/h (0 Bft) 0,00 %
16.06.2015 06:20 14,4 C 90 % 1017,9 hPa 0,0 l/m 0,0 km/h (0 Bft) S 188 0 min 0,000 mm 0,0 UV-I 28 W/m 12,8 C 14,4 C 0,0 km/h (0 Bft) 0,00 %
16.06.2015 06:25 14,4 C 89 % 1017,7 hPa 0,0 l/m 0,0 km/h (0 Bft) S-SW 200 0 min 0,000 mm 0,0 UV-I 29 W/m 12,6 C 14,4 C 0,0 km/h (0 Bft) 0,00 %
16.06.2015 06:30 14,5 C 90 % 1017,9 hPa 0,0 l/m 0,0 km/h (0 Bft) S-SW 200 0 min 0,000 mm 0,0 UV-I 26 W/m 12,9 C 14,5 C 0,0 km/h (0 Bft) 0,00 %
16.06.2015 06:35 14,5 C 89 % 1017,9 hPa 0,0 l/m 0,0 km/h (0 Bft) S 184 0 min 0,000 mm 0,0 UV-I 29 W/m 12,7 C 14,5 C 0,0 km/h (0 Bft) 0,00 %
16.06.2015 06:40 14,5 C 89 % 1017,8 hPa 0,0 l/m 0,0 km/h (0 Bft) S 184 0 min 0,000 mm 0,0 UV-I 35 W/m 12,7 C 14,5 C 0,0 km/h (0 Bft) 0,00 %
16.06.2015 06:45 14,6 C 90 % 1018,0 hPa 0,0 l/m 0,0 km/h (0 Bft) S 184 0 min 0,000 mm 0,0 UV-I 34 W/m 13,0 C 14,6 C 0,0 km/h (0 Bft) 0,00 %
16.06.2015 06:50 14,6 C 89 % 1017,9 hPa 0,0 l/m 0,0 km/h (0 Bft) S 173 0 min 0,000 mm 0,0 UV-I 38 W/m 12,8 C 14,6 C 0,0 km/h (0 Bft) 0,00 %
16.06.2015 06:55 14,6 C 89 % 1018,1 hPa 0,0 l/m 0,0 km/h (0 Bft) S 173 0 min 0,000 mm 1,0 UV-I 46 W/m 12,8 C 14,6 C 0,0 km/h (0 Bft) 0,00 %
16.06.2015 07:00 14,6 C 89 % 1018,0 hPa 0,0 l/m 0,0 km/h (0 Bft) S 173 0 min 0,000 mm 1,0 UV-I 46 W/m 12,8 C 14,6 C 0,0 km/h (0 Bft) 0,00 %
16.06.2015 07:05 14,8 C 87 % 1017,9 hPa 0,0 l/m 0,0 km/h (0 Bft) SO 128 0 min 0,000 mm 1,0 UV-I 41 W/m 12,7 C 14,8 C 0,0 km/h (0 Bft) 0,00 %
16.06.2015 07:10 14,9 C 87 % 1018,0 hPa 0,0 l/m 0,0 km/h (0 Bft) O-SO 123 0 min 0,000 mm 1,0 UV-I 40 W/m 12,8 C 14,9 C 0,0 km/h (0 Bft) 0,00 %
16.06.2015 07:15 15,0 C 86 % 1017,9 hPa 0,0 l/m 0,0 km/h (0 Bft) O-SO 106 0 min 0,000 mm 1,0 UV-I 44 W/m 12,7 C 15,0 C 0,0 km/h (0 Bft) 0,00 %
16.06.2015 07:20 15,1 C 85 % 1017,8 hPa 0,0 l/m 0,0 km/h (0 Bft) O-SO 102 0 min 0,000 mm 1,0 UV-I 51 W/m 12,6 C 15,1 C 0,0 km/h (0 Bft) 0,00 %
16.06.2015 07:25 15,2 C 86 % 1017,9 hPa 0,0 l/m 0,0 km/h (0 Bft) SO 128 0 min 0,000 mm 1,0 UV-I 53 W/m 12,9 C 15,2 C 0,0 km/h (0 Bft) 0,00 %
16.06.2015 07:30 15,3 C 85 % 1017,9 hPa 0,0 l/m 0,0 km/h (0 Bft) NW 313 0 min 0,000 mm 1,0 UV-I 59 W/m 12,8 C 15,3 C 0,0 km/h (0 Bft) 0,00 %
16.06.2015 07:35 15,2 C 85 % 1018,0 hPa 0,0 l/m 0,0 km/h (0 Bft) O 89 0 min 0,000 mm 1,0 UV-I 65 W/m 12,7 C 15,2 C 0,0 km/h (0 Bft) 0,00 %
16.06.2015 07:40 15,2 C 85 % 1017,9 hPa 0,0 l/m 0,0 km/h (0 Bft) O-SO 109 0 min 0,000 mm 1,0 UV-I 61 W/m 12,7 C 15,2 C 0,0 km/h (0 Bft) 0,00 %
16.06.2015 07:45 15,3 C 84 % 1017,8 hPa 0,0 l/m 0,0 km/h (0 Bft) O 99 0 min 0,000 mm 1,0 UV-I 62 W/m 12,6 C 15,3 C 0,0 km/h (0 Bft) 0,00 %
16.06.2015 07:50 15,4 C 83 % 1018,1 hPa 0,0 l/m 0,0 km/h (0 Bft) S-SO 159 0 min 0,000 mm 1,0 UV-I 76 W/m 12,5 C 15,4 C 0,0 km/h (0 Bft) 0,00 %
16.06.2015 07:55 15,5 C 82 % 1017,9 hPa 0,0 l/m 0,0 km/h (0 Bft) O-SO 109 0 min 0,000 mm 1,0 UV-I 85 W/m 12,4 C 15,5 C 0,0 km/h (0 Bft) 0,00 %
16.06.2015 08:00 15,7 C 81 % 1018,1 hPa 0,0 l/m 0,0 km/h (0 Bft) SO 139 0 min 0,000 mm 1,0 UV-I 95 W/m 12,4 C 15,7 C 0,0 km/h (0 Bft) 0,00 %
16.06.2015 08:05 15,8 C 80 % 1017,8 hPa 0,0 l/m 0,0 km/h (0 Bft) S-SO 151 0 min 0,000 mm 1,0 UV-I 95 W/m 12,4 C 15,8 C 0,0 km/h (0 Bft) 0,00 %
16.06.2015 08:10 15,9 C 80 % 1017,9 hPa 0,0 l/m 0,0 km/h (0 Bft) S 173 0 min 0,000 mm 1,0 UV-I 88 W/m 12,5 C 15,9 C 0,0 km/h (0 Bft) 0,00 %
16.06.2015 08:15 16,2 C 80 % 1017,9 hPa 0,0 l/m 0,0 km/h (0 Bft) O 85 0 min 0,000 mm 1,0 UV-I 80 W/m 12,7 C 16,2 C 0,0 km/h (0 Bft) 0,00 %
16.06.2015 08:20 16,4 C 80 % 1017,8 hPa 0,0 l/m 0,0 km/h (0 Bft) S 173 0 min 0,000 mm 1,0 UV-I 83 W/m 12,9 C 16,4 C 0,0 km/h (0 Bft) 0,00 %
16.06.2015 08:25 16,6 C 80 % 1017,8 hPa 0,0 l/m 0,0 km/h (0 Bft) S-SO 168 0 min 0,000 mm 1,0 UV-I 97 W/m 13,1 C 16,6 C 0,0 km/h (0 Bft) 0,00 %
16.06.2015 08:30 16,8 C 79 % 1017,9 hPa 0,0 l/m 0,0 km/h (0 Bft) O-SO 116 0 min 0,000 mm 1,0 UV-I 115 W/m 13,1 C 16,8 C 0,0 km/h (0 Bft) 0,00 %
16.06.2015 08:35 16,8 C 77 % 1017,9 hPa 0,0 l/m 0,0 km/h (0 Bft) SO 127 0 min 0,000 mm 1,0 UV-I 135 W/m 12,7 C 16,8 C 0,0 km/h (0 Bft) 0,00 %
16.06.2015 08:40 16,8 C 77 % 1017,8 hPa 0,0 l/m 0,0 km/h (0 Bft) SO 132 0 min 0,000 mm 1,0 UV-I 84 W/m 12,7 C 16,8 C 0,0 km/h (0 Bft) 0,00 %
16.06.2015 08:45 16,9 C 77 % 1017,9 hPa 0,0 l/m 0,0 km/h (0 Bft) O-SO 103 0 min 0,000 mm 1,0 UV-I 138 W/m 12,8 C 16,9 C 0,0 km/h (0 Bft) 0,00 %
16.06.2015 08:50 16,9 C 76 % 1017,7 hPa 0,0 l/m 0,0 km/h (0 Bft) O-SO 120 0 min 0,000 mm 1,0 UV-I 139 W/m 12,6 C 16,9 C 0,0 km/h (0 Bft) 0,00 %
16.06.2015 08:55 16,9 C 73 % 1017,9 hPa 0,0 l/m 0,0 km/h (0 Bft) SO 130 0 min 0,000 mm 1,0 UV-I 169 W/m 12,0 C 16,9 C 0,0 km/h (0 Bft) 0,00 %
16.06.2015 09:00 17,0 C 76 % 1017,8 hPa 0,0 l/m 0,0 km/h (0 Bft) S 173 0 min 0,000 mm 1,0 UV-I 175 W/m 12,7 C 17,0 C 0,0 km/h (0 Bft) 0,00 %
16.06.2015 09:05 17,1 C 75 % 1017,6 hPa 0,0 l/m 0,0 km/h (0 Bft) SO 130 0 min 0,000 mm 1,0 UV-I 177 W/m 12,6 C 17,1 C 0,0 km/h (0 Bft) 0,00 %
16.06.2015 09:10 17,1 C 74 % 1017,8 hPa 0,0 l/m 0,0 km/h (0 Bft) SO 137 0 min 0,000 mm 1,0 UV-I 192 W/m 12,4 C 17,1 C 0,0 km/h (0 Bft) 0,00 %
16.06.2015 09:15 17,2 C 75 % 1017,8 hPa 0,0 l/m 0,0 km/h (0 Bft) S-SO 166 0 min 0,000 mm 2,0 UV-I 208 W/m 12,7 C 17,2 C 0,0 km/h (0 Bft) 0,00 %
16.06.2015 09:20 17,3 C 74 % 1018,0 hPa 0,0 l/m 0,0 km/h (0 Bft) O-SO 120 0 min 0,000 mm 2,0 UV-I 222 W/m 12,6 C 17,3 C 0,0 km/h (0 Bft) 0,00 %
16.06.2015 09:25 17,4 C 71 % 1017,9 hPa 0,0 l/m 0,0 km/h (0 Bft) O-SO 122 0 min 0,000 mm 2,0 UV-I 210 W/m 12,1 C 17,4 C 0,0 km/h (0 Bft) 0,00 %
16.06.2015 09:30 17,5 C 72 % 1017,9 hPa 0,0 l/m 0,0 km/h (0 Bft) SO 139 0 min 0,000 mm 2,0 UV-I 186 W/m 12,4 C 17,5 C 0,0 km/h (0 Bft) 0,00 %
16.06.2015 09:35 17,8 C 68 % 1017,5 hPa 0,0 l/m 0,0 km/h (0 Bft) SO 124 0 min 0,000 mm 2,0 UV-I 167 W/m 11,8 C 17,8 C 0,0 km/h (0 Bft) 0,00 %
16.06.2015 09:40 18,0 C 69 % 1017,8 hPa 0,0 l/m 0,0 km/h (0 Bft) O-SO 121 0 min 0,000 mm 2,0 UV-I 190 W/m 12,2 C 18,0 C 0,0 km/h (0 Bft) 0,00 %
16.06.2015 09:45 18,2 C 71 % 1017,5 hPa 0,0 l/m 0,0 km/h (0 Bft) S-SO 156 0 min 0,000 mm 2,0 UV-I 189 W/m 12,9 C 18,2 C 0,0 km/h (0 Bft) 0,00 %
16.06.2015 09:50 18,3 C 68 % 1017,6 hPa 0,0 l/m 0,0 km/h (0 Bft) O-SO 122 0 min 0,000 mm 2,0 UV-I 223 W/m 12,3 C 18,3 C 0,0 km/h (0 Bft) 0,00 %
16.06.2015 09:55 18,4 C 65 % 1017,8 hPa 0,0 l/m 0,0 km/h (0 Bft) SO 128 0 min 0,000 mm 2,0 UV-I 258 W/m 11,7 C 18,4 C 0,0 km/h (0 Bft) 0,00 %
16.06.2015 10:00 18,3 C 67 % 1017,7 hPa 0,0 l/m 0,0 km/h (0 Bft) O-SO 121 0 min 0,000 mm 2,0 UV-I 250 W/m 12,1 C 18,3 C 0,0 km/h (0 Bft) 0,00 %
16.06.2015 10:05 18,3 C 67 % 1017,5 hPa 0,0 l/m 0,0 km/h (0 Bft) S 178 0 min 0,000 mm 2,0 UV-I 253 W/m 12,1 C 18,3 C 0,0 km/h (0 Bft) 0,00 %
16.06.2015 10:10 18,5 C 65 % 1017,5 hPa 0,0 l/m 0,7 km/h (0 Bft) SO 132 0 min 0,000 mm 2,0 UV-I 264 W/m 11,8 C 18,5 C 4,0 km/h (1 Bft) 0,00 %
16.06.2015 10:15 18,7 C 64 % 1017,5 hPa 0,0 l/m 0,0 km/h (0 Bft) SO 132 0 min 0,000 mm 2,0 UV-I 269 W/m 11,7 C 18,7 C 0,0 km/h (0 Bft) 0,00 %
16.06.2015 10:20 18,8 C 63 % 1017,4 hPa 0,0 l/m 0,0 km/h (0 Bft) SO 128 0 min 0,000 mm 2,0 UV-I 290 W/m 11,6 C 18,8 C 0,0 km/h (0 Bft) 0,00 %
16.06.2015 10:25 18,9 C 63 % 1017,3 hPa 0,0 l/m 0,0 km/h (0 Bft) O 100 0 min 0,000 mm 2,0 UV-I 300 W/m 11,7 C 18,9 C 0,0 km/h (0 Bft) 0,00 %
16.06.2015 10:30 18,8 C 65 % 1017,4 hPa 0,0 l/m 0,4 km/h (0 Bft) O-SO 105 0 min 0,000 mm 2,0 UV-I 320 W/m 12,1 C 18,8 C 4,0 km/h (1 Bft) 0,00 %
16.06.2015 10:35 18,9 C 63 % 1017,6 hPa 0,0 l/m 0,0 km/h (0 Bft) SO 141 0 min 0,000 mm 2,0 UV-I 340 W/m 11,7 C 18,9 C 0,0 km/h (0 Bft) 0,00 %
16.06.2015 10:40 19,3 C 65 % 1017,4 hPa 0,0 l/m 0,0 km/h (0 Bft) S 188 0 min 0,000 mm 2,0 UV-I 347 W/m 12,6 C 19,3 C 0,0 km/h (0 Bft) 0,00 %
16.06.2015 10:45 19,5 C 63 % 1017,5 hPa 0,0 l/m 0,0 km/h (0 Bft) S-SW 199 0 min 0,000 mm 2,0 UV-I 333 W/m 12,3 C 19,5 C 0,0 km/h (0 Bft) 0,00 %
16.06.2015 10:50 19,8 C 63 % 1017,5 hPa 0,0 l/m 0,0 km/h (0 Bft) O-SO 105 0 min 0,000 mm 2,0 UV-I 338 W/m 12,5 C 19,8 C 0,0 km/h (0 Bft) 0,00 %
16.06.2015 10:55 19,8 C 61 % 1017,5 hPa 0,0 l/m 0,0 km/h (0 Bft) S-SO 162 0 min 0,000 mm 3,0 UV-I 361 W/m 12,1 C 19,8 C 0,0 km/h (0 Bft) 0,00 %
16.06.2015 11:00 19,9 C 62 % 1017,3 hPa 0,0 l/m 0,0 km/h (0 Bft) N-NO 32 0 min 0,000 mm 2,0 UV-I 387 W/m 12,4 C 19,9 C 0,0 km/h (0 Bft) 0,00 %
16.06.2015 11:05 20,0 C 61 % 1017,2 hPa 0,0 l/m 0,0 km/h (0 Bft) SO 137 0 min 0,000 mm 2,0 UV-I 376 W/m 12,2 C 20,0 C 0,0 km/h (0 Bft) 0,00 %
16.06.2015 11:10 20,0 C 61 % 1017,3 hPa 0,0 l/m 0,0 km/h (0 Bft) O-SO 122 0 min 0,000 mm 2,0 UV-I 397 W/m 12,2 C 20,0 C 0,0 km/h (0 Bft) 0,00 %
16.06.2015 11:15 19,9 C 60 % 1017,2 hPa 0,0 l/m 0,0 km/h (0 Bft) S-SW 196 0 min 0,000 mm 2,0 UV-I 400 W/m 11,9 C 19,9 C 0,0 km/h (0 Bft) 0,00 %
16.06.2015 11:20 19,8 C 62 % 1017,2 hPa 0,0 l/m 0,0 km/h (0 Bft) SW 216 0 min 0,000 mm 2,0 UV-I 402 W/m 12,3 C 19,8 C 0,0 km/h (0 Bft) 0,00 %
16.06.2015 11:25 19,7 C 63 % 1017,2 hPa 0,0 l/m 0,0 km/h (0 Bft) S-SO 162 0 min 0,000 mm 2,0 UV-I 410 W/m 12,5 C 19,7 C 0,0 km/h (0 Bft) 0,00 %
16.06.2015 11:30 19,6 C 62 % 1017,4 hPa 0,0 l/m 0,4 km/h (0 Bft) SO 137 0 min 0,000 mm 2,0 UV-I 402 W/m 12,1 C 19,6 C 4,0 km/h (1 Bft) 0,00 %
16.06.2015 11:35 19,6 C 62 % 1017,4 hPa 0,0 l/m 0,0 km/h (0 Bft) SO 128 0 min 0,000 mm 2,0 UV-I 397 W/m 12,1 C 19,6 C 0,0 km/h (0 Bft) 0,00 %
16.06.2015 11:40 19,6 C 61 % 1017,5 hPa 0,0 l/m 0,0 km/h (0 Bft) SO 146 0 min 0,000 mm 2,0 UV-I 433 W/m 11,9 C 19,6 C 0,0 km/h (0 Bft) 0,00 %
16.06.2015 11:45 19,6 C 61 % 1017,3 hPa 0,0 l/m 0,0 km/h (0 Bft) N 9 0 min 0,000 mm 2,0 UV-I 449 W/m 11,9 C 19,6 C 0,0 km/h (0 Bft) 0,00 %
16.06.2015 11:50 19,4 C 62 % 1017,2 hPa 0,0 l/m 0,0 km/h (0 Bft) W-SW 256 0 min 0,000 mm 2,0 UV-I 421 W/m 11,9 C 19,4 C 0,0 km/h (0 Bft) 0,00 %
16.06.2015 11:55 19,0 C 62 % 1017,2 hPa 0,0 l/m 1,4 km/h (1 Bft) W-SW 256 0 min 0,000 mm 2,0 UV-I 357 W/m 11,6 C 19,0 C 4,0 km/h (1 Bft) 0,00 %
16.06.2015 12:00 18,7 C 63 % 1017,4 hPa 0,0 l/m 0,0 km/h (0 Bft) N 0 0 min 0,000 mm 2,0 UV-I 302 W/m 11,5 C 18,7 C 0,0 km/h (0 Bft) 0,00 %
16.06.2015 12:05 18,4 C 63 % 1017,4 hPa 0,0 l/m 0,0 km/h (0 Bft) S 191 0 min 0,000 mm 2,0 UV-I 279 W/m 11,2 C 18,4 C 0,0 km/h (0 Bft) 0,00 %
16.06.2015 12:10 18,5 C 62 % 1017,4 hPa 0,0 l/m 0,0 km/h (0 Bft) O-SO 117 0 min 0,000 mm 2,0 UV-I 331 W/m 11,1 C 18,5 C 0,0 km/h (0 Bft) 0,00 %
16.06.2015 12:15 19,1 C 62 % 1017,3 hPa 0,0 l/m 0,0 km/h (0 Bft) S 178 0 min 0,000 mm 2,0 UV-I 326 W/m 11,6 C 19,1 C 0,0 km/h (0 Bft) 0,00 %
16.06.2015 12:20 19,4 C 64 % 1017,1 hPa 0,0 l/m 0,0 km/h (0 Bft) W-NW 297 0 min 0,000 mm 2,0 UV-I 288 W/m 12,4 C 19,4 C 0,0 km/h (0 Bft) 0,00 %
16.06.2015 12:25 19,0 C 62 % 1017,1 hPa 0,0 l/m 0,0 km/h (0 Bft) N-NW 342 0 min 0,000 mm 2,0 UV-I 307 W/m 11,6 C 19,0 C 0,0 km/h (0 Bft) 0,00 %
16.06.2015 12:30 18,8 C 63 % 1017,3 hPa 0,0 l/m 2,9 km/h (1 Bft) NW 315 0 min 0,000 mm 2,0 UV-I 331 W/m 11,6 C 18,8 C 4,0 km/h (1 Bft) 0,00 %
16.06.2015 12:35 18,7 C 63 % 1017,1 hPa 0,0 l/m 0,0 km/h (0 Bft) O 91 0 min 0,000 mm 2,0 UV-I 332 W/m 11,5 C 18,7 C 0,0 km/h (0 Bft) 0,00 %
16.06.2015 12:40 18,6 C 63 % 1017,2 hPa 0,0 l/m 0,0 km/h (0 Bft) O-SO 109 0 min 0,000 mm 2,0 UV-I 353 W/m 11,4 C 18,6 C 0,0 km/h (0 Bft) 0,00 %
16.06.2015 12:45 18,6 C 63 % 1017,0 hPa 0,0 l/m 0,0 km/h (0 Bft) N 349 0 min 0,000 mm 2,0 UV-I 347 W/m 11,4 C 18,6 C 0,0 km/h (0 Bft) 0,00 %
16.06.2015 12:50 18,7 C 63 % 1017,0 hPa 0,0 l/m 1,4 km/h (1 Bft) NW 315 0 min 0,000 mm 2,0 UV-I 331 W/m 11,5 C 18,7 C 4,0 km/h (1 Bft) 0,00 %
16.06.2015 12:55 18,5 C 63 % 1017,1 hPa 0,0 l/m 0,0 km/h (0 Bft) W-SW 256 0 min 0,000 mm 2,0 UV-I 320 W/m 11,3 C 18,5 C 0,0 km/h (0 Bft) 0,00 %
16.06.2015 13:00 18,4 C 62 % 1017,1 hPa 0,0 l/m 0,0 km/h (0 Bft) S 187 0 min 0,000 mm 2,0 UV-I 313 W/m 11,0 C 18,4 C 0,0 km/h (0 Bft) 0,00 %
16.06.2015 13:05 18,5 C 63 % 1017,0 hPa 0,0 l/m 0,0 km/h (0 Bft) N-NO 32 0 min 0,000 mm 2,0 UV-I 284 W/m 11,3 C 18,5 C 0,0 km/h (0 Bft) 0,00 %
16.06.2015 13:10 18,5 C 64 % 1017,2 hPa 0,0 l/m 0,0 km/h (0 Bft) N 7 0 min 0,000 mm 2,0 UV-I 284 W/m 11,6 C 18,5 C 0,0 km/h (0 Bft) 0,00 %
16.06.2015 13:15 18,2 C 64 % 1017,3 hPa 0,0 l/m 0,0 km/h (0 Bft) O 96 0 min 0,000 mm 1,0 UV-I 280 W/m 11,3 C 18,2 C 0,0 km/h (0 Bft) 0,00 %
16.06.2015 13:20 18,0 C 62 % 1016,9 hPa 0,0 l/m 0,0 km/h (0 Bft) SO 138 0 min 0,000 mm 1,0 UV-I 269 W/m 10,6 C 18,0 C 0,0 km/h (0 Bft) 0,00 %
16.06.2015 13:25 18,1 C 63 % 1017,0 hPa 0,0 l/m 0,0 km/h (0 Bft) NO 49 0 min 0,000 mm 1,0 UV-I 263 W/m 10,9 C 18,1 C 0,0 km/h (0 Bft) 0,00 %
16.06.2015 13:30 18,2 C 64 % 1016,9 hPa 0,0 l/m 0,0 km/h (0 Bft) N 356 0 min 0,000 mm 1,0 UV-I 250 W/m 11,3 C 18,2 C 0,0 km/h (0 Bft) 0,00 %
16.06.2015 13:35 18,1 C 64 % 1016,9 hPa 0,0 l/m 0,0 km/h (0 Bft) O 98 0 min 0,000 mm 1,0 UV-I 248 W/m 11,2 C 18,1 C 0,0 km/h (0 Bft) 0,00 %
16.06.2015 13:40 17,9 C 65 % 1017,1 hPa 0,0 l/m 0,0 km/h (0 Bft) O-SO 114 0 min 0,000 mm 1,0 UV-I 259 W/m 11,2 C 17,9 C 0,0 km/h (0 Bft) 0,00 %
16.06.2015 13:45 17,9 C 64 % 1017,0 hPa 0,0 l/m 0,0 km/h (0 Bft) N-NW 348 0 min 0,000 mm 1,0 UV-I 261 W/m 11,0 C 17,9 C 0,0 km/h (0 Bft) 0,00 %
16.06.2015 13:50 17,8 C 65 % 1017,0 hPa 0,0 l/m 1,8 km/h (1 Bft) NW 317 0 min 0,000 mm 1,0 UV-I 247 W/m 11,1 C 17,8 C 4,0 km/h (1 Bft) 0,00 %
16.06.2015 13:55 17,5 C 66 % 1017,1 hPa 0,0 l/m 0,0 km/h (0 Bft) SW 229 0 min 0,000 mm 1,0 UV-I 214 W/m 11,1 C 17,5 C 0,0 km/h (0 Bft) 0,00 %
16.06.2015 14:00 17,4 C 64 % 1017,0 hPa 0,0 l/m 0,0 km/h (0 Bft) SW 223 0 min 0,000 mm 1,0 UV-I 198 W/m 10,5 C 17,4 C 0,0 km/h (0 Bft) 0,00 %
16.06.2015 14:05 17,3 C 64 % 1017,1 hPa 0,0 l/m 0,0 km/h (0 Bft) N-NW 338 0 min 0,000 mm 1,0 UV-I 192 W/m 10,4 C 17,3 C 0,0 km/h (0 Bft) 0,00 %
16.06.2015 14:10 17,4 C 68 % 1017,2 hPa 0,0 l/m 0,0 km/h (0 Bft) N 2 0 min 0,000 mm 1,0 UV-I 187 W/m 11,4 C 17,4 C 0,0 km/h (0 Bft) 0,00 %
16.06.2015 14:15 17,6 C 65 % 1017,0 hPa 0,0 l/m 0,0 km/h (0 Bft) NO 56 0 min 0,000 mm 1,0 UV-I 182 W/m 10,9 C 17,6 C 0,0 km/h (0 Bft) 0,00 %
16.06.2015 14:20 17,7 C 65 % 1016,8 hPa 0,0 l/m 0,0 km/h (0 Bft) S 175 0 min 0,000 mm 1,0 UV-I 169 W/m 11,0 C 17,7 C 0,0 km/h (0 Bft) 0,00 %
16.06.2015 14:25 17,6 C 66 % 1017,0 hPa 0,0 l/m 1,4 km/h (1 Bft) NO 40 0 min 0,000 mm 1,0 UV-I 167 W/m 11,2 C 17,6 C 4,0 km/h (1 Bft) 0,00 %
16.06.2015 14:30 17,6 C 66 % 1017,1 hPa 0,0 l/m 0,0 km/h (0 Bft) SO 144 0 min 0,000 mm 1,0 UV-I 156 W/m 11,2 C 17,6 C 0,0 km/h (0 Bft) 0,00 %
16.06.2015 14:35 17,4 C 64 % 1017,0 hPa 0,0 l/m 0,0 km/h (0 Bft) O-SO 121 0 min 0,000 mm 1,0 UV-I 139 W/m 10,5 C 17,4 C 0,0 km/h (0 Bft) 0,00 %
16.06.2015 14:40 17,3 C 63 % 1017,1 hPa 0,0 l/m 2,9 km/h (1 Bft) SW 222 0 min 0,000 mm 1,0 UV-I 136 W/m 10,2 C 17,3 C 4,0 km/h (1 Bft) 0,00 %
16.06.2015 14:45 17,2 C 60 % 1017,0 hPa 0,0 l/m 0,0 km/h (0 Bft) SO 143 0 min 0,000 mm 1,0 UV-I 143 W/m 9,4 C 17,2 C 0,0 km/h (0 Bft) 0,00 %
16.06.2015 14:50 17,2 C 62 % 1016,9 hPa 0,0 l/m 0,0 km/h (0 Bft) S 175 0 min 0,000 mm 1,0 UV-I 141 W/m 9,9 C 17,2 C 0,0 km/h (0 Bft) 0,00 %
16.06.2015 14:55 17,3 C 61 % 1017,0 hPa 0,0 l/m 0,0 km/h (0 Bft) O-SO 102 0 min 0,000 mm 1,0 UV-I 141 W/m 9,7 C 17,3 C 0,0 km/h (0 Bft) 0,00 %
16.06.2015 15:00 17,4 C 69 % 1017,0 hPa 0,0 l/m 0,0 km/h (0 Bft) O-SO 115 0 min 0,000 mm 1,0 UV-I 136 W/m 11,7 C 17,4 C 0,0 km/h (0 Bft) 0,00 %
16.06.2015 15:05 17,3 C 71 % 1016,8 hPa 0,0 l/m 0,4 km/h (0 Bft) N 355 0 min 0,000 mm 1,0 UV-I 131 W/m 12,0 C 17,3 C 4,0 km/h (1 Bft) 0,00 %
16.06.2015 15:10 17,0 C 73 % 1016,8 hPa 0,0 l/m 0,0 km/h (0 Bft) S 189 0 min 0,000 mm 1,0 UV-I 117 W/m 12,1 C 17,0 C 0,0 km/h (0 Bft) 0,00 %
16.06.2015 15:15 16,8 C 74 % 1016,8 hPa 0,0 l/m 0,0 km/h (0 Bft) SO 127 0 min 0,000 mm 1,0 UV-I 106 W/m 12,1 C 16,8 C 0,0 km/h (0 Bft) 0,00 %
16.06.2015 15:20 16,5 C 75 % 1016,9 hPa 0,0 l/m 0,0 km/h (0 Bft) S-SW 207 0 min 0,000 mm 1,0 UV-I 105 W/m 12,1 C 16,5 C 0,0 km/h (0 Bft) 0,00 %
16.06.2015 15:25 16,4 C 75 % 1016,9 hPa 0,0 l/m 0,0 km/h (0 Bft) SO 128 0 min 0,000 mm 1,0 UV-I 110 W/m 12,0 C 16,4 C 0,0 km/h (0 Bft) 0,00 %
16.06.2015 15:30 16,3 C 76 % 1017,0 hPa 0,0 l/m 0,0 km/h (0 Bft) NW 309 0 min 0,000 mm 1,0 UV-I 110 W/m 12,1 C 16,3 C 0,0 km/h (0 Bft) 0,00 %
16.06.2015 15:35 16,3 C 76 % 1017,0 hPa 0,0 l/m 0,0 km/h (0 Bft) NO 52 0 min 0,000 mm 1,0 UV-I 113 W/m 12,1 C 16,3 C 0,0 km/h (0 Bft) 0,00 %
16.06.2015 15:40 16,2 C 76 % 1017,0 hPa 0,0 l/m 0,0 km/h (0 Bft) NW 313 0 min 0,000 mm 1,0 UV-I 125 W/m 12,0 C 16,2 C 0,0 km/h (0 Bft) 0,00 %
16.06.2015 15:45 16,2 C 75 % 1017,0 hPa 0,0 l/m 0,0 km/h (0 Bft) W 274 0 min 0,000 mm 1,0 UV-I 114 W/m 11,8 C 16,2 C 0,0 km/h (0 Bft) 0,00 %
16.06.2015 15:50 16,2 C 73 % 1017,0 hPa 0,0 l/m 0,0 km/h (0 Bft) SO 136 0 min 0,000 mm 0,0 UV-I 101 W/m 11,4 C 16,2 C 0,0 km/h (0 Bft) 0,00 %
16.06.2015 15:55 16,3 C 73 % 1017,1 hPa 0,0 l/m 0,0 km/h (0 Bft) O 99 0 min 0,000 mm 0,0 UV-I 105 W/m 11,4 C 16,3 C 0,0 km/h (0 Bft) 0,00 %
16.06.2015 16:00 16,4 C 73 % 1017,1 hPa 0,0 l/m 0,0 km/h (0 Bft) SO 136 0 min 0,000 mm 1,0 UV-I 115 W/m 11,5 C 16,4 C 0,0 km/h (0 Bft) 0,00 %
16.06.2015 16:05 16,4 C 74 % 1017,0 hPa 0,0 l/m 0,0 km/h (0 Bft) O-SO 123 0 min 0,000 mm 1,0 UV-I 114 W/m 11,8 C 16,4 C 0,0 km/h (0 Bft) 0,00 %
16.06.2015 16:10 16,4 C 73 % 1016,9 hPa 0,0 l/m 0,0 km/h (0 Bft) S-SO 166 0 min 0,000 mm 1,0 UV-I 107 W/m 11,5 C 16,4 C 0,0 km/h (0 Bft) 0,00 %
16.06.2015 16:15 16,4 C 73 % 1016,8 hPa 0,0 l/m 0,0 km/h (0 Bft) S 187 0 min 0,000 mm 1,0 UV-I 100 W/m 11,5 C 16,4 C 0,0 km/h (0 Bft) 0,00 %
16.06.2015 16:20 16,5 C 72 % 1016,9 hPa 0,0 l/m 0,0 km/h (0 Bft) S 182 0 min 0,000 mm 1,0 UV-I 102 W/m 11,4 C 16,5 C 0,0 km/h (0 Bft) 0,00 %
16.06.2015 16:25 16,6 C 72 % 1016,9 hPa 0,0 l/m 0,0 km/h (0 Bft) S 173 0 min 0,000 mm 1,0 UV-I 92 W/m 11,5 C 16,6 C 0,0 km/h (0 Bft) 0,00 %
16.06.2015 16:30 16,8 C 71 % 1016,7 hPa 0,0 l/m 0,0 km/h (0 Bft) S-SW 210 0 min 0,000 mm 1,0 UV-I 74 W/m 11,5 C 16,8 C 0,0 km/h (0 Bft) 0,00 %
16.06.2015 16:35 16,9 C 68 % 1016,5 hPa 0,0 l/m 0,0 km/h (0 Bft) S 176 0 min 0,000 mm 1,0 UV-I 75 W/m 11,0 C 16,9 C 0,0 km/h (0 Bft) 0,00 %
16.06.2015 16:40 17,0 C 66 % 1016,6 hPa 0,0 l/m 0,0 km/h (0 Bft) SO 141 0 min 0,000 mm 1,0 UV-I 79 W/m 10,6 C 17,0 C 0,0 km/h (0 Bft) 0,00 %
16.06.2015 16:45 17,2 C 66 % 1016,6 hPa 0,0 l/m 0,0 km/h (0 Bft) S 174 0 min 0,000 mm 1,0 UV-I 89 W/m 10,8 C 17,2 C 0,0 km/h (0 Bft) 0,00 %
16.06.2015 16:50 17,4 C 67 % 1016,7 hPa 0,0 l/m 0,0 km/h (0 Bft) SO 141 0 min 0,000 mm 1,0 UV-I 90 W/m 11,2 C 17,4 C 0,0 km/h (0 Bft) 0,00 %
16.06.2015 16:55 17,5 C 67 % 1016,6 hPa 0,0 l/m 0,0 km/h (0 Bft) SO 146 0 min 0,000 mm 1,0 UV-I 94 W/m 11,3 C 17,5 C 0,0 km/h (0 Bft) 0,00 %
16.06.2015 17:00 17,5 C 68 % 1016,6 hPa 0,0 l/m 0,0 km/h (0 Bft) O-SO 102 0 min 0,000 mm 1,0 UV-I 98 W/m 11,5 C 17,5 C 0,0 km/h (0 Bft) 0,00 %
16.06.2015 17:05 17,4 C 66 % 1016,5 hPa 0,0 l/m 0,0 km/h (0 Bft) S-SW 193 0 min 0,000 mm 1,0 UV-I 99 W/m 11,0 C 17,4 C 0,0 km/h (0 Bft) 0,00 %
16.06.2015 17:10 17,4 C 68 % 1016,4 hPa 0,0 l/m 0,0 km/h (0 Bft) S-SW 193 0 min 0,000 mm 1,0 UV-I 100 W/m 11,4 C 17,4 C 0,0 km/h (0 Bft) 0,00 %
16.06.2015 17:15 17,4 C 70 % 1016,8 hPa 0,0 l/m 0,0 km/h (0 Bft) S-SW 193 0 min 0,000 mm 1,0 UV-I 101 W/m 11,9 C 17,4 C 0,0 km/h (0 Bft) 0,00 %
16.06.2015 17:20 17,3 C 68 % 1016,6 hPa 0,0 l/m 0,0 km/h (0 Bft) S-SW 193 0 min 0,000 mm 1,0 UV-I 122 W/m 11,3 C 17,3 C 0,0 km/h (0 Bft) 0,00 %
16.06.2015 17:25 17,3 C 69 % 1016,7 hPa 0,0 l/m 0,0 km/h (0 Bft) S-SW 193 0 min 0,000 mm 0,0 UV-I 130 W/m 11,6 C 17,3 C 0,0 km/h (0 Bft) 0,00 %
16.06.2015 17:30 17,3 C 69 % 1016,6 hPa 0,0 l/m 0,0 km/h (0 Bft) SW 217 0 min 0,000 mm 0,0 UV-I 127 W/m 11,6 C 17,3 C 0,0 km/h (0 Bft) 0,00 %
16.06.2015 17:35 17,1 C 69 % 1016,7 hPa 0,0 l/m 0,0 km/h (0 Bft) SW 228 0 min 0,000 mm 0,0 UV-I 126 W/m 11,4 C 17,1 C 0,0 km/h (0 Bft) 0,00 %
16.06.2015 17:40 17,0 C 70 % 1016,7 hPa 0,0 l/m 0,7 km/h (0 Bft) SW 228 0 min 0,000 mm 0,0 UV-I 125 W/m 11,5 C 17,0 C 4,0 km/h (1 Bft) 0,00 %
16.06.2015 17:45 17,0 C 70 % 1016,8 hPa 0,0 l/m 0,0 km/h (0 Bft) SO 133 0 min 0,000 mm 0,0 UV-I 120 W/m 11,5 C 17,0 C 0,0 km/h (0 Bft) 0,00 %
16.06.2015 17:50 16,9 C 70 % 1016,7 hPa 0,0 l/m 0,0 km/h (0 Bft) S-SW 196 0 min 0,000 mm 0,0 UV-I 111 W/m 11,4 C 16,9 C 0,0 km/h (0 Bft) 0,00 %
16.06.2015 17:55 16,8 C 71 % 1016,7 hPa 0,0 l/m 0,0 km/h (0 Bft) S-SW 196 0 min 0,000 mm 0,0 UV-I 98 W/m 11,5 C 16,8 C 0,0 km/h (0 Bft) 0,00 %
16.06.2015 18:00 16,7 C 72 % 1016,9 hPa 0,0 l/m 0,0 km/h (0 Bft) S-SW 196 0 min 0,000 mm 0,0 UV-I 98 W/m 11,6 C 16,7 C 0,0 km/h (0 Bft) 0,00 %
16.06.2015 18:05 16,6 C 73 % 1016,8 hPa 0,0 l/m 0,0 km/h (0 Bft) S-SW 207 0 min 0,000 mm 0,0 UV-I 91 W/m 11,7 C 16,6 C 0,0 km/h (0 Bft) 0,00 %
16.06.2015 18:10 16,4 C 73 % 1016,7 hPa 0,0 l/m 0,0 km/h (0 Bft) S-SW 202 0 min 0,000 mm 0,0 UV-I 90 W/m 11,5 C 16,4 C 0,0 km/h (0 Bft) 0,00 %
16.06.2015 18:15 16,3 C 74 % 1016,9 hPa 0,0 l/m 0,0 km/h (0 Bft) S-SW 197 0 min 0,000 mm 0,0 UV-I 90 W/m 11,7 C 16,3 C 0,0 km/h (0 Bft) 0,00 %
16.06.2015 18:20 16,1 C 76 % 1017,0 hPa 0,0 l/m 0,0 km/h (0 Bft) SO 136 0 min 0,000 mm 0,0 UV-I 83 W/m 11,9 C 16,1 C 0,0 km/h (0 Bft) 0,00 %
16.06.2015 18:25 16,1 C 78 % 1016,9 hPa 0,0 l/m 0,0 km/h (0 Bft) SW 228 0 min 0,000 mm 0,0 UV-I 84 W/m 12,3 C 16,1 C 0,0 km/h (0 Bft) 0,00 %
16.06.2015 18:30 16,0 C 79 % 1016,9 hPa 0,0 l/m 0,0 km/h (0 Bft) SO 142 0 min 0,000 mm 0,0 UV-I 80 W/m 12,4 C 16,0 C 0,0 km/h (0 Bft) 0,00 %
16.06.2015 18:35 16,0 C 79 % 1017,0 hPa 0,0 l/m 0,0 km/h (0 Bft) S-SW 200 0 min 0,000 mm 0,0 UV-I 73 W/m 12,4 C 16,0 C 0,0 km/h (0 Bft) 0,00 %
16.06.2015 18:40 15,9 C 81 % 1017,1 hPa 0,0 l/m 0,0 km/h (0 Bft) SO 142 0 min 0,000 mm 0,0 UV-I 67 W/m 12,6 C 15,9 C 0,0 km/h (0 Bft) 0,00 %
16.06.2015 18:45 15,8 C 81 % 1017,0 hPa 0,0 l/m 0,0 km/h (0 Bft) S 176 0 min 0,000 mm 0,0 UV-I 65 W/m 12,5 C 15,8 C 0,0 km/h (0 Bft) 0,00 %
16.06.2015 18:50 15,7 C 81 % 1017,0 hPa 0,0 l/m 0,0 km/h (0 Bft) S-SW 203 0 min 0,000 mm 0,0 UV-I 59 W/m 12,4 C 15,7 C 0,0 km/h (0 Bft) 0,00 %
16.06.2015 18:55 15,6 C 82 % 1017,0 hPa 0,0 l/m 0,0 km/h (0 Bft) S-SW 203 0 min 0,000 mm 0,0 UV-I 46 W/m 12,5 C 15,6 C 0,0 km/h (0 Bft) 0,00 %
16.06.2015 19:00 15,5 C 81 % 1017,2 hPa 0,0 l/m 0,0 km/h (0 Bft) S-SW 203 0 min 0,000 mm 0,0 UV-I 35 W/m 12,3 C 15,5 C 0,0 km/h (0 Bft) 0,00 %
16.06.2015 19:05 15,5 C 81 % 1017,0 hPa 0,0 l/m 0,0 km/h (0 Bft) S-SW 203 0 min 0,000 mm 0,0 UV-I 33 W/m 12,3 C 15,5 C 0,0 km/h (0 Bft) 0,00 %
16.06.2015 19:10 15,5 C 82 % 1016,9 hPa 0,0 l/m 0,0 km/h (0 Bft) S-SW 203 0 min 0,000 mm 0,0 UV-I 35 W/m 12,4 C 15,5 C 0,0 km/h (0 Bft) 0,00 %
16.06.2015 19:15 15,5 C 81 % 1017,2 hPa 0,0 l/m 0,0 km/h (0 Bft) S-SW 203 0 min 0,000 mm 0,0 UV-I 37 W/m 12,3 C 15,5 C 0,0 km/h (0 Bft) 0,00 %
16.06.2015 19:20 15,5 C 82 % 1017,4 hPa 0,0 l/m 0,0 km/h (0 Bft) S-SW 203 0 min 0,000 mm 0,0 UV-I 39 W/m 12,4 C 15,5 C 0,0 km/h (0 Bft) 0,00 %
16.06.2015 19:25 15,5 C 82 % 1017,4 hPa 0,0 l/m 0,0 km/h (0 Bft) S-SW 203 0 min 0,000 mm 0,0 UV-I 40 W/m 12,4 C 15,5 C 0,0 km/h (0 Bft) 0,00 %
16.06.2015 19:30 15,5 C 82 % 1017,2 hPa 0,0 l/m 0,0 km/h (0 Bft) S-SW 203 0 min 0,000 mm 0,0 UV-I 40 W/m 12,4 C 15,5 C 0,0 km/h (0 Bft) 0,00 %
16.06.2015 19:35 15,5 C 82 % 1017,5 hPa 0,0 l/m 0,0 km/h (0 Bft) S-SW 203 0 min 0,000 mm 0,0 UV-I 35 W/m 12,4 C 15,5 C 0,0 km/h (0 Bft) 0,00 %
16.06.2015 19:40 15,4 C 82 % 1017,5 hPa 0,0 l/m 0,0 km/h (0 Bft) S-SW 203 0 min 0,000 mm 0,0 UV-I 27 W/m 12,3 C 15,4 C 0,0 km/h (0 Bft) 0,00 %
16.06.2015 19:45 15,4 C 82 % 1017,8 hPa 0,0 l/m 0,0 km/h (0 Bft) S-SW 203 0 min 0,000 mm 0,0 UV-I 16 W/m 12,3 C 15,4 C 0,0 km/h (0 Bft) 0,00 %
16.06.2015 19:50 15,3 C 84 % 1017,6 hPa 0,0 l/m 0,0 km/h (0 Bft) S-SO 153 0 min 0,000 mm 0,0 UV-I 11 W/m 12,6 C 15,3 C 0,0 km/h (0 Bft) 0,00 %
16.06.2015 19:55 15,2 C 85 % 1017,7 hPa 0,0 l/m 0,0 km/h (0 Bft) S 173 0 min 0,000 mm 0,0 UV-I 16 W/m 12,7 C 15,2 C 0,0 km/h (0 Bft) 0,00 %
16.06.2015 20:00 15,2 C 85 % 1017,6 hPa 0,0 l/m 0,0 km/h (0 Bft) S 189 0 min 0,000 mm 0,0 UV-I 12 W/m 12,7 C 15,2 C 0,0 km/h (0 Bft) 0,00 %
16.06.2015 20:05 15,1 C 85 % 1017,6 hPa 0,0 l/m 0,0 km/h (0 Bft) S 189 0 min 0,000 mm 0,0 UV-I 15 W/m 12,6 C 15,1 C 0,0 km/h (0 Bft) 0,00 %
16.06.2015 20:10 15,1 C 85 % 1017,7 hPa 0,0 l/m 0,0 km/h (0 Bft) S 188 0 min 0,000 mm 0,0 UV-I 16 W/m 12,6 C 15,1 C 0,0 km/h (0 Bft) 0,00 %
16.06.2015 20:15 15,0 C 86 % 1018,0 hPa 0,0 l/m 0,0 km/h (0 Bft) S 189 0 min 0,000 mm 0,0 UV-I 11 W/m 12,7 C 15,0 C 0,0 km/h (0 Bft) 0,00 %
16.06.2015 20:20 14,9 C 85 % 1017,8 hPa 0,0 l/m 0,0 km/h (0 Bft) S-SO 148 0 min 0,000 mm 0,0 UV-I 8 W/m 12,4 C 14,9 C 0,0 km/h (0 Bft) 0,00 %
16.06.2015 20:25 14,9 C 85 % 1018,0 hPa 0,0 l/m 0,0 km/h (0 Bft) W-SW 247 0 min 0,000 mm 0,0 UV-I 3 W/m 12,4 C 14,9 C 0,0 km/h (0 Bft) 0,00 %
16.06.2015 20:30 14,9 C 86 % 1018,0 hPa 0,0 l/m 0,0 km/h (0 Bft) W-SW 247 0 min 0,000 mm 0,0 UV-I 0 W/m 12,6 C 14,9 C 0,0 km/h (0 Bft) 0,00 %
16.06.2015 20:35 14,9 C 86 % 1018,0 hPa 0,0 l/m 0,0 km/h (0 Bft) SW 218 0 min 0,000 mm 0,0 UV-I 0 W/m 12,6 C 14,9 C 0,0 km/h (0 Bft) 0,00 %
16.06.2015 20:40 14,8 C 87 % 1017,8 hPa 0,0 l/m 0,0 km/h (0 Bft) S-SO 161 0 min 0,000 mm 0,0 UV-I 0 W/m 12,7 C 14,8 C 0,0 km/h (0 Bft) 0,00 %
16.06.2015 20:45 14,8 C 87 % 1017,9 hPa 0,0 l/m 0,0 km/h (0 Bft) O-SO 102 0 min 0,000 mm 0,0 UV-I 0 W/m 12,7 C 14,8 C 0,0 km/h (0 Bft) 0,00 %
16.06.2015 20:50 14,8 C 87 % 1018,1 hPa 0,0 l/m 0,0 km/h (0 Bft) S 188 0 min 0,000 mm 0,0 UV-I 0 W/m 12,7 C 14,8 C 0,0 km/h (0 Bft) 0,00 %
16.06.2015 20:55 14,7 C 87 % 1018,2 hPa 0,0 l/m 0,0 km/h (0 Bft) S-SW 197 0 min 0,000 mm 0,0 UV-I 0 W/m 12,6 C 14,7 C 0,0 km/h (0 Bft) 0,00 %
16.06.2015 21:00 14,7 C 87 % 1018,3 hPa 0,0 l/m 0,0 km/h (0 Bft) SW 221 0 min 0,000 mm 0,0 UV-I 0 W/m 12,6 C 14,7 C 0,0 km/h (0 Bft) 0,00 %
16.06.2015 21:05 14,7 C 87 % 1018,2 hPa 0,0 l/m 0,0 km/h (0 Bft) SW 216 0 min 0,000 mm 0,0 UV-I 0 W/m 12,6 C 14,7 C 0,0 km/h (0 Bft) 0,00 %
16.06.2015 21:10 14,7 C 87 % 1018,2 hPa 0,0 l/m 0,0 km/h (0 Bft) S-SW 204 0 min 0,000 mm 0,0 UV-I 0 W/m 12,6 C 14,7 C 0,0 km/h (0 Bft) 0,00 %
16.06.2015 21:15 14,7 C 87 % 1018,3 hPa 0,0 l/m 0,0 km/h (0 Bft) S-SW 204 0 min 0,000 mm 0,0 UV-I 0 W/m 12,6 C 14,7 C 0,0 km/h (0 Bft) 0,00 %
16.06.2015 21:20 14,7 C 87 % 1018,4 hPa 0,0 l/m 0,0 km/h (0 Bft) S-SW 204 0 min 0,000 mm 0,0 UV-I 0 W/m 12,6 C 14,7 C 0,0 km/h (0 Bft) 0,00 %
16.06.2015 21:25 14,6 C 87 % 1018,3 hPa 0,0 l/m 0,0 km/h (0 Bft) S-SW 204 0 min 0,000 mm 0,0 UV-I 0 W/m 12,5 C 14,6 C 0,0 km/h (0 Bft) 0,00 %
16.06.2015 21:30 14,6 C 88 % 1018,2 hPa 0,0 l/m 0,0 km/h (0 Bft) S-SW 204 0 min 0,000 mm 0,0 UV-I 0 W/m 12,6 C 14,6 C 0,0 km/h (0 Bft) 0,00 %
16.06.2015 21:35 14,6 C 88 % 1018,4 hPa 0,0 l/m 0,0 km/h (0 Bft) S-SW 204 0 min 0,000 mm 0,0 UV-I 0 W/m 12,6 C 14,6 C 0,0 km/h (0 Bft) 0,00 %
16.06.2015 21:40 14,6 C 88 % 1018,4 hPa 0,0 l/m 0,0 km/h (0 Bft) S-SW 199 0 min 0,000 mm 0,0 UV-I 0 W/m 12,6 C 14,6 C 0,0 km/h (0 Bft) 0,00 %
16.06.2015 21:45 14,6 C 88 % 1018,4 hPa 0,0 l/m 0,0 km/h (0 Bft) S-SW 199 0 min 0,000 mm 0,0 UV-I 0 W/m 12,6 C 14,6 C 0,0 km/h (0 Bft) 0,00 %
16.06.2015 21:50 14,6 C 88 % 1018,2 hPa 0,0 l/m 0,0 km/h (0 Bft) S-SW 199 0 min 0,000 mm 0,0 UV-I 0 W/m 12,6 C 14,6 C 0,0 km/h (0 Bft) 0,00 %
16.06.2015 21:55 14,5 C 88 % 1018,5 hPa 0,0 l/m 0,0 km/h (0 Bft) S-SW 199 0 min 0,000 mm 0,0 UV-I 0 W/m 12,5 C 14,5 C 0,0 km/h (0 Bft) 0,00 %
16.06.2015 22:00 14,5 C 88 % 1018,5 hPa 0,0 l/m 0,0 km/h (0 Bft) S-SW 199 0 min 0,000 mm 0,0 UV-I 0 W/m 12,5 C 14,5 C 0,0 km/h (0 Bft) 0,00 %
16.06.2015 22:05 14,5 C 87 % 1018,5 hPa 0,0 l/m 0,0 km/h (0 Bft) S-SW 199 0 min 0,000 mm 0,0 UV-I 0 W/m 12,4 C 14,5 C 0,0 km/h (0 Bft) 0,00 %
16.06.2015 22:10 14,4 C 88 % 1018,5 hPa 0,0 l/m 0,0 km/h (0 Bft) S-SW 199 0 min 0,000 mm 0,0 UV-I 0 W/m 12,4 C 14,4 C 0,0 km/h (0 Bft) 0,00 %
16.06.2015 22:15 14,4 C 88 % 1018,6 hPa 0,0 l/m 0,0 km/h (0 Bft) S-SW 199 0 min 0,000 mm 0,0 UV-I 0 W/m 12,4 C 14,4 C 0,0 km/h (0 Bft) 0,00 %
16.06.2015 22:20 14,3 C 88 % 1018,5 hPa 0,0 l/m 0,0 km/h (0 Bft) S-SW 199 0 min 0,000 mm 0,0 UV-I 0 W/m 12,3 C 14,3 C 0,0 km/h (0 Bft) 0,00 %
16.06.2015 22:25 14,3 C 88 % 1018,6 hPa 0,0 l/m 0,0 km/h (0 Bft) S-SW 193 0 min 0,000 mm 0,0 UV-I 0 W/m 12,3 C 14,3 C 0,0 km/h (0 Bft) 0,00 %
16.06.2015 22:30 14,3 C 89 % 1018,8 hPa 0,0 l/m 0,0 km/h (0 Bft) S-SW 193 0 min 0,000 mm 0,0 UV-I 0 W/m 12,5 C 14,3 C 0,0 km/h (0 Bft) 0,00 %
16.06.2015 22:35 14,3 C 90 % 1018,8 hPa 0,0 l/m 0,0 km/h (0 Bft) S-SW 193 0 min 0,000 mm 0,0 UV-I 0 W/m 12,7 C 14,3 C 0,0 km/h (0 Bft) 0,00 %
16.06.2015 22:40 14,3 C 90 % 1018,7 hPa 0,0 l/m 0,0 km/h (0 Bft) S 191 0 min 0,000 mm 0,0 UV-I 0 W/m 12,7 C 14,3 C 0,0 km/h (0 Bft) 0,00 %
16.06.2015 22:45 14,2 C 91 % 1018,9 hPa 0,0 l/m 0,0 km/h (0 Bft) S-SW 192 0 min 0,000 mm 0,0 UV-I 0 W/m 12,8 C 14,2 C 0,0 km/h (0 Bft) 0,00 %
16.06.2015 22:50 14,2 C 91 % 1019,1 hPa 0,0 l/m 0,0 km/h (0 Bft) S-SW 192 0 min 0,000 mm 0,0 UV-I 0 W/m 12,8 C 14,2 C 0,0 km/h (0 Bft) 0,00 %
16.06.2015 22:55 14,2 C 91 % 1019,0 hPa 0,0 l/m 0,0 km/h (0 Bft) S-SW 192 0 min 0,000 mm 0,0 UV-I 0 W/m 12,8 C 14,2 C 0,0 km/h (0 Bft) 0,00 %
16.06.2015 23:00 14,2 C 91 % 1019,3 hPa 0,0 l/m 0,0 km/h (0 Bft) S-SW 192 0 min 0,000 mm 0,0 UV-I 0 W/m 12,8 C 14,2 C 0,0 km/h (0 Bft) 0,00 %
16.06.2015 23:05 14,2 C 91 % 1019,2 hPa 0,0 l/m 0,0 km/h (0 Bft) S-SW 192 0 min 0,000 mm 0,0 UV-I 0 W/m 12,8 C 14,2 C 0,0 km/h (0 Bft) 0,00 %
16.06.2015 23:10 14,2 C 91 % 1019,2 hPa 0,0 l/m 0,0 km/h (0 Bft) S-SW 203 0 min 0,000 mm 0,0 UV-I 0 W/m 12,8 C 14,2 C 0,0 km/h (0 Bft) 0,00 %
16.06.2015 23:15 14,2 C 92 % 1019,2 hPa 0,0 l/m 0,0 km/h (0 Bft) SW 225 0 min 0,000 mm 0,0 UV-I 0 W/m 12,9 C 14,2 C 0,0 km/h (0 Bft) 0,00 %
16.06.2015 23:20 14,2 C 92 % 1019,2 hPa 0,0 l/m 0,0 km/h (0 Bft) S-SW 213 0 min 0,000 mm 0,0 UV-I 0 W/m 12,9 C 14,2 C 0,0 km/h (0 Bft) 0,00 %
16.06.2015 23:25 14,2 C 92 % 1019,2 hPa 0,0 l/m 0,0 km/h (0 Bft) SW 231 0 min 0,000 mm 0,0 UV-I 0 W/m 12,9 C 14,2 C 0,0 km/h (0 Bft) 0,00 %
16.06.2015 23:30 14,2 C 92 % 1019,1 hPa 0,0 l/m 0,0 km/h (0 Bft) SW 231 0 min 0,000 mm 0,0 UV-I 0 W/m 12,9 C 14,2 C 0,0 km/h (0 Bft) 0,00 %
16.06.2015 23:35 14,1 C 92 % 1019,0 hPa 0,0 l/m 0,0 km/h (0 Bft) SW 226 0 min 0,000 mm 0,0 UV-I 0 W/m 12,8 C 14,1 C 0,0 km/h (0 Bft) 0,00 %
16.06.2015 23:40 14,1 C 92 % 1019,2 hPa 0,0 l/m 0,0 km/h (0 Bft) S-SW 211 0 min 0,000 mm 0,0 UV-I 0 W/m 12,8 C 14,1 C 0,0 km/h (0 Bft) 0,00 %
16.06.2015 23:45 14,1 C 92 % 1019,2 hPa 0,0 l/m 0,4 km/h (0 Bft) O 89 0 min 0,000 mm 0,0 UV-I 0 W/m 12,8 C 14,1 C 4,0 km/h (1 Bft) 0,00 %
16.06.2015 23:50 14,0 C 92 % 1019,2 hPa 0,0 l/m 0,0 km/h (0 Bft) SO 130 0 min 0,000 mm 0,0 UV-I 0 W/m 12,7 C 14,0 C 0,0 km/h (0 Bft) 0,00 %
16.06.2015 23:55 13,9 C 93 % 1019,1 hPa 0,0 l/m 0,0 km/h (0 Bft) S 175 0 min 0,000 mm 0,0 UV-I 0 W/m 12,8 C 13,9 C 0,0 km/h (0 Bft) 0,00 %
_ Min-Zeit 05:25 11:15 17:10 - 00:10 - - - - - - 14:45 05:25 00:10 00:00
Minimum _ 13,9 C 60 % 1016,4 hPa - 0,0 km/h (0 Bft) - - - - - - 9,4 C 13,9 C 0,0 km/h (0 Bft) 0,00 %
_ Max-Zeit 11:05 01:40 23:00 00:50 00:05 - - 00:00 00:00 10:55 11:45 01:45 11:05 00:00 00:00
Maximum _ 20,0 C 95 % 1019,3 hPa 0,3 l/m 2,9 km/h
O-NO (1 Bft)
- - 0 min 0,000 mm 3,0 UV-I 449 W/m 14,0 C 20,0 C 4,0 km/h
O-NO (1 Bft)
0,00 %
Durchschnitt _ 16,0 C 80 % 1017,4 hPa #0,6 l/m 0,1 km/h (0 Bft) NW - #0 min. #0,000 mm 1,4 UV-I 154 W/m 12,4 C 16,0 C 0,2 km/h (0 Bft) 0,00 %